map of VCA home
Great Circle Mapper logo
VCA - Airport
Location
City:  Cân Tho, Vietnam
Name:Cân Tho International Airport
Old (Alt.):Trà Nóc International Airport
ICAO:VVCT
IATA:VCA

Details
Type:Airport (Aerodrome, Airfield)
Use:International (customs port of entry)
Latitude:10°05'06"N (10.085119)
Longitude:105°42'43"E (105.711922)
Datum:WGS 1984
Elevation:9 ft (3 m)
Variation:0.35°W (WMM2015 magnetic declination)
-0.02° annual change
Runways:1
Longest:7886 × 100 ft (2404 × 30.5 m), paved

Time
Time Zone:UTC+7
Local Time:

Weather
METAR:VVCT 290900Z VRB03KT 9999 SCT015 FEW017CB BKN050 29/26 Q1006 NOSIG CB/NE
TAF:VVCT 290500Z 2906/3006 22008KT 9999 SCT015 SCT040
TEMPO 2907/2910 3000 TSRA BKN013 SCT015CB

Related Locations
Nearby:
Farthest:SPDC: 12430 mi / 20005 km
Chicosa [Chicosa Airport], UCA, PE

Find:

   beyond  
but within

Other Information
Maps:
NOTAMs:
Links:
Sources:

  
flag of Vietnam   

Sectional Chart

Flight Planning
at skyvector.com

Satellite Image

Google Maps Satellite view

 

Copyright © 2004-2016 Karl L. Swartz. All rights reserved.
The Great Circle Mapper name and logo are trademarks of the Great Circle Mapper.
All other trademarks mentioned herein belong to their respective owners.
Please see credits for attibutions and further copyright information.

  Follow gcmap on Facebook Follow gcmap on Twitter Follow gcmap on Google+ GCmap on LinkedIn

hCard Microformat

Geo Microformat